This demonstration page uses our WeatherBlox Daily Observations layout. Learn more.

Left ArrowRight Arrow

39.51506, -84.39828

Hourly Observations for February 3, 2017

Temp ( °F °C ) Dew Point ( °F °C ) Humidity (%) Winds ( mph kmh ) Pressure ( in mb ) Visibility ( mi km ) Precip ( " mm )
12:53 am 00:53 Clear 22 -5.6 12 -11.1 66 66 Calm 30.35 1028 10 16 0.00 0.00
1:53 am 01:53 Clear 22 -5.6 13 -10.6 68 68 NW 5 7 30.33 1027 10 16 0.00 0.00
2:53 am 02:53 Clear 22 -5.6 13 -10.6 68 68 WNW 3 6 30.33 1027 10 16 0.00 0.00
3:53 am 03:53 Clear 21 -6.1 14 -10 74 74 NNW 7 11 30.34 1027 10 16 0.00 0.00
4:53 am 04:53 Cloudy 21 -6.1 10 -12.2 62 62 NW 8 13 30.34 1028 10 16 0.00 0.00
5:53 am 05:53 Mostly Cloudy 21 -6.1 10 -12.2 62 62 NW 8 13 30.35 1028 10 16 0.00 0.00
6:53 am 06:53 Cloudy 21 -6.1 12 -11.1 68 68 WNW 6 9 30.36 1028 10 16 0.00 0.00
7:53 am 07:53 Cloudy 21 -6.1 11 -11.7 65 65 WNW 6 9 30.37 1029 10 16 0.00 0.00
8:53 am 08:53 Mostly Cloudy 22 -5.6 12 -11.1 66 66 NW 7 11 30.39 1029 10 16 0.00 0.00
9:53 am 09:53 Cloudy 22 -5.6 11 -11.7 63 63 NW 9 15 30.41 1030 10 16 0.00 0.00
10:53 am 10:53 Cloudy 23 -5 11 -11.7 60 60 NW 8 13 30.41 1030 10 16 0.00 0.00
11:53 am 11:53 Cloudy 24 -4.4 11 -11.7 57 57 VRB 7 11 30.40 1030 10 16 0.00 0.00
12:53 pm 12:53 Cloudy 25 -3.9 11 -11.7 55 55 WNW 9 15 30.40 1030 10 16 0.00 0.00
1:53 pm 13:53 Cloudy 24 -4.4 7 -13.9 48 48 NW 14 22 30.40 1030 10 16 0.00 0.00
2:53 pm 14:53 Partly Cloudy 26 -3.3 7 -13.9 44 44 NW 12 19 30.41 1030 10 16 0.00 0.00
3:53 pm 15:53 Sunny 27 -2.8 8 -13.3 45 45 NNW 14 22 30.41 1030 10 16 0.00 0.00
4:53 pm 16:53 Sunny 27 -2.8 8 -13.3 45 45 NW 12 19 30.43 1031 10 16 0.00 0.00
5:53 pm 17:53 Sunny 26 -3.3 8 -13.3 46 46 NW 8 13 30.45 1031 10 16 0.00 0.00
6:53 pm 18:53 Clear 24 -4.4 8 -13.3 50 50 WNW 8 13 30.48 1032 10 16 0.00 0.00
7:53 pm 19:53 Clear 23 -5 9 -12.8 55 55 WNW 3 6 30.50 1033 10 16 0.00 0.00
8:53 pm 20:53 Clear 21 -6.1 9 -12.8 59 59 WSW 5 7 30.50 1033 10 16 0.00 0.00
9:53 pm 21:53 Clear 21 -6.1 8 -13.3 57 57 Calm 30.50 1033 10 16 0.00 0.00
10:53 pm 22:53 Clear 17 -8.3 8 -13.3 68 68 SSW 3 6 30.50 1033 10 16 0.00 0.00
11:53 pm 23:53 Clear 18 -7.8 8 -13.3 65 65 SSW 3 6 30.50 1033 10 16 0.00 0.00

Powered by AerisWeather